Wind_Speed
25 25 23 21 20 19 18 17 16 15 15 15 16 16 18 17 21 32 32 32 30 29 28 27 26 24 24 23 22 23 24 21 19 18 16 16 15 13 12 13 13 13 13
31 31 30 27 24 22 21 20 19 18 18 18 17 19 21 21 22 33 36 35 33 31 31 29 28 27 27 26 26 25 25 22 19 19 18 16 14 13 13 11 10 12 14
32 31 31 28 25 25 25 27 25 24 23 22 20 21 23 23 20 33 36 33 35 35 32 31 32 30 29 29 29 25 24 25 23 21 20 18 17 15 14 14 13 13 12
26 30 30 32 30 30 31 32 29 29 28 27 24 24 25 26 24 27 30 35 38 37 36 34 35 33 34 33 31 27 25 27 26 23 22 21 20 19 19 18 18 18 15
10 23 23 25 34 34 33 37 36 36 36 34 31 28 28 30 30 31 34 36 37 37 37 36 36 36 36 37 34 32 29 31 28 27 26 24 24 24 24 21 20 20 22
20 29 22 27 27 27 27 38 41 45 48 46 38 35 33 34 34 34 35 36 38 39 40 39 36 35 34 35 34 35 33 34 33 31 29 26 27 26 26 27 25 27 27
27 15 24 25 29 32 34 36 43 49 56 43 54 41 40 40 39 38 37 37 37 37 39 38 37 37 37 37 39 39 39 38 35 35 32 31 33 33 34 30 29 29 29
23 19 23 27 27 33 36 39 44 46 42 41 40 53 60 53 47 44 42 40 40 39 39 40 40 38 39 40 41 42 42 41 39 38 38 37 35 36 36 35 36 34 33
32 30 31 32 32 33 35 40 35 35 36 29 37 40 47 64 57 51 43 41 42 42 42 41 43 40 40 41 42 43 46 44 47 47 46 45 43 43 42 40 38 42 38
27 31 34 35 36 39 39 41 39 35 33 33 36 28 25 44 51 53 46 43 41 38 43 46 48 45 43 45 48 50 54 52 52 52 53 50 44 50 44 46 48 44 44
31 31 32 34 34 35 35 35 32 32 30 30 30 26 22 29 26 28 33 34 36 38 41 46 49 51 48 49 53 56 57 62 64 64 59 60 48 46 39 44 41 47 36
28 26 29 30 30 29 30 32 34 32 31 28 28 29 32 31 30 32 35 38 40 40 34 31 36 44 49 47 49 46 49 56 66 66 61 58 58 51 35 32 34 34 32
32 31 29 32 31 32 34 35 34 35 35 34 32 30 36 36 35 38 39 42 39 41 43 43 43 46 49 52 54 51 38 42 34 45 48 52 48 44 37 29 28 31 32
35 34 33 35 37 38 40 41 41 42 40 38 37 36 36 43 45 48 50 47 46 44 42 47 52 52 51 50 45 41 38 37 37 36 43 53 49 44 39 33 32 32 29
36 38 41 42 44 45 42 42 42 37 38 41 42 44 47 48 53 55 55 54 52 52 56 52 53 53 52 48 46 45 42 42 43 44 43 42 43 43 39 35 33 33 32
34 37 41 46 47 42 38 36 39 37 42 42 45 48 51 53 56 58 60 60 61 62 64 57 57 57 55 52 49 46 46 45 45 47 45 43 41 41 41 39 38 35 35
39 39 36 35 34 36 38 39 40 42 43 45 46 51 52 53 57 60 65 64 65 63 63 66 61 57 55 56 53 51 51 50 48 47 46 46 43 43 42 44 43 40 38
36 34 34 35 36 36 36 41 44 44 45 47 51 53 56 58 60 66 67 71 70 70 71 66 63 61 63 62 59 55 53 53 51 50 49 48 46 44 46 45 45 46 45
35 37 39 40 39 38 37 38 40 43 47 51 55 56 61 58 59 72 73 74 72 78 60 66 70 66 61 65 62 59 57 55 53 51 50 51 50 48 47 47 46 46 47
39 41 43 43 44 43 42 40 43 42 43 48 52 50 54 62 64 75 70 73 72 74 60 69 67 66 63 57 55 56 58 59 57 54 54 53 53 53 51 51 49 49 48
40 39 40 41 41 41 40 42 39 39 41 40 31 32 34 43 56 71 44 67 76 70 65 63 64 65 59 58 56 58 58 55 55 58 58 57 56 55 56 54 54 53 51
35 36 36 37 38 39 37 34 31 33 35 28 26 23 24 25 34 40 52 38 45 48 47 54 59 58 59 58 59 60 60 56 54 55 57 60 59 58 56 56 54 54 54
31 32 33 34 34 34 31 30 32 32 30 28 26 23 23 24 29 24 46 49 44 52 57 57 58 57 55 56 59 59 59 56 53 54 55 56 58 56 56 55 54 54 54
32 32 32 34 35 34 30 27 25 23 24 26 25 24 21 20 24 34 41 38 36 41 43 45 48 50 51 56 58 57 57 55 53 49 51 53 53 54 54 52 51 52 52
29 30 33 35 35 33 31 29 27 25 19 20 22 22 24 25 26 32 39 41 43 45 48 49 49 50 50 50 51 50 54 53 52 50 46 49 52 51 56 51 45 48 49
30 31 32 32 32 31 29 26 26 24 23 24 25 23 22 25 29 30 32 33 32 33 36 42 48 51 52 52 50 53 52 51 51 48 51 51 49 51 55 54 51 48 48
Wind_Direction
233 241 240 229 224 225 234 246 255 262 263 260 256 252 257 254 251 224 217 213 212 216 221 226 231 236 240 239 235 239 242 240 243 237 236 237 237 239 244 248 255 256 255
230 232 234 228 226 229 234 240 250 259 264 266 266 260 262 267 276 218 213 212 214 218 221 225 231 233 237 242 242 241 253 251 238 232 237 235 231 230 235 243 244 251 252
242 251 255 255 245 239 235 229 231 240 251 256 255 253 254 255 261 216 217 211 216 221 224 228 234 236 239 241 246 245 242 240 241 241 247 240 233 234 239 245 245 248 248
245 244 277 266 261 255 255 255 251 245 241 247 248 244 241 239 237 233 230 221 222 225 228 231 236 239 243 244 244 242 231 228 235 243 248 256 261 261 261 258 254 258 261
253 265 279 255 266 261 265 272 266 261 254 245 247 241 239 238 231 228 230 232 233 237 240 242 245 245 245 244 244 245 236 235 235 240 244 251 261 267 268 268 266 269 272
279 281 255 262 265 265 266 258 259 261 259 252 244 242 238 233 231 232 233 236 236 239 243 245 246 248 248 247 246 247 246 243 244 244 245 249 257 259 261 267 274 278 280
299 266 240 255 270 278 281 278 252 278 273 288 256 245 244 236 230 229 234 238 238 238 241 243 242 243 244 243 245 245 246 250 254 254 251 251 250 252 253 258 267 273 277
295 285 272 280 294 274 271 277 282 279 282 278 289 279 243 239 231 230 229 232 236 241 245 249 248 245 246 247 248 251 254 255 256 256 257 254 252 249 252 259 260 263 269
287 291 292 287 285 283 278 282 282 278 282 279 303 297 239 234 230 228 231 233 235 238 240 245 250 251 253 254 255 256 257 255 256 257 255 253 252 254 253 257 260 266 266
280 278 281 282 281 284 283 283 283 284 289 298 300 323 211 238 219 229 232 238 239 248 249 253 247 244 243 247 251 251 253 256 255 254 255 253 256 257 251 248 252 257 256
286 283 281 280 278 278 280 284 288 288 291 296 300 289 259 260 253 241 240 241 253 253 249 265 238 245 248 252 257 258 258 261 256 250 249 256 267 278 275 270 264 261 248
292 293 293 289 287 284 283 284 286 286 287 286 282 278 254 253 250 244 245 245 244 251 253 241 233 244 247 254 259 264 256 266 265 257 253 258 268 274 276 287 267 254 258
294 294 293 293 294 295 292 287 287 286 280 274 270 266 258 245 244 248 246 243 245 249 253 248 245 245 249 255 258 260 263 263 264 248 247 256 268 266 269 271 262 262 258
295 295 297 297 296 295 293 290 284 282 277 269 266 262 259 256 248 252 250 249 256 256 253 251 251 249 249 250 254 259 266 268 267 259 253 256 261 260 258 259 261 264 267
301 297 301 304 301 297 294 291 285 277 273 267 263 259 257 256 254 256 252 248 251 250 251 251 245 247 251 250 253 254 255 257 258 255 254 254 258 260 257 254 254 261 265
298 298 303 304 302 300 300 292 288 279 274 274 267 261 259 257 258 259 259 251 246 249 250 254 248 247 250 249 247 249 252 252 253 257 259 260 262 260 258 256 258 259 260
308 309 308 305 304 304 304 305 294 280 279 273 272 268 261 257 254 253 256 252 251 255 253 258 255 250 252 255 255 254 253 254 254 257 259 259 260 261 260 258 258 259 261
310 310 311 310 308 305 303 301 296 291 284 280 278 269 262 258 251 247 248 250 253 256 253 250 253 258 261 255 259 259 257 255 254 256 259 262 263 261 260 258 260 261 262
313 313 311 309 306 304 303 301 295 294 288 288 284 277 270 258 246 241 243 244 249 251 249 249 260 260 264 260 255 260 264 261 260 259 257 258 261 261 260 259 257 258 259
313 312 309 306 303 304 302 298 297 293 288 289 288 279 267 260 245 242 233 241 241 247 253 251 256 260 259 261 262 261 262 263 261 260 259 257 258 259 260 260 259 259 260
315 316 316 316 315 311 306 305 302 291 290 295 299 291 280 261 247 238 244 253 249 246 259 246 248 252 255 256 258 259 261 264 262 259 259 258 256 256 258 259 259 260 262
320 324 326 326 325 321 314 314 311 297 296 298 296 294 279 264 249 261 249 265 256 246 257 252 250 253 254 258 258 256 256 257 258 259 257 256 256 256 258 259 261 262 263
323 325 327 330 332 333 317 309 314 320 306 302 302 288 262 264 249 258 245 257 257 255 254 254 256 264 261 256 256 256 255 256 257 258 258 257 257 257 257 258 260 261 262
323 327 331 334 338 338 335 324 317 312 307 305 301 295 283 265 258 240 240 261 267 259 256 257 258 259 260 256 253 254 254 253 255 259 259 258 258 257 256 256 256 258 258
330 333 333 333 335 338 338 336 328 321 316 308 310 295 282 277 269 261 260 262 261 255 253 253 254 253 254 259 263 258 257 258 258 258 262 261 257 259 253 252 255 256 257
330 333 335 337 338 336 337 334 334 331 326 315 309 307 296 291 276 270 270 265 264 266 267 264 261 260 258 257 253 249 253 256 257 259 258 259 259 256 258 254 250 252 256
Height
5889 5890 5890 5887 5887 5890 5891 5892 5893 5893 5893 5893 5893 5892 5893 5894 5895 5895 5898 5903 5906 5909 5911 5912 5914 5917 5918 5918 5919 5920 5920 5923 5924 5924 5925 5926 5926 5926 5926 5925 5925 5923 5923
5881 5881 5881 5876 5877 5882 5885 5886 5887 5887 5889 5890 5892 5892 5891 5891 5889 5890 5893 5897 5900 5904 5907 5908 5909 5911 5913 5915 5916 5917 5918 5918 5921 5922 5924 5924 5924 5923 5923 5923 5922 5922 5921
5881 5884 5886 5885 5880 5878 5877 5874 5875 5876 5877 5879 5882 5885 5886 5888 5888 5886 5887 5892 5896 5898 5901 5904 5905 5907 5907 5910 5911 5914 5915 5915 5916 5918 5919 5920 5921 5921 5921 5919 5918 5918 5918
5875 5882 5883 5883 5881 5876 5877 5877 5878 5876 5873 5871 5872 5873 5875 5878 5883 5886 5887 5889 5891 5892 5894 5897 5899 5903 5903 5904 5906 5909 5911 5912 5912 5914 5916 5916 5916 5917 5917 5916 5915 5914 5915
5873 5875 5873 5876 5872 5875 5874 5877 5876 5877 5876 5871 5868 5867 5869 5871 5874 5877 5880 5883 5886 5889 5891 5893 5895 5897 5899 5899 5900 5903 5907 5908 5910 5910 5911 5911 5911 5911 5910 5911 5910 5910 5910
5863 5863 5862 5864 5864 5865 5867 5867 5865 5865 5869 5869 5861 5862 5863 5863 5867 5869 5873 5876 5878 5881 5884 5886 5888 5890 5893 5895 5895 5896 5899 5903 5905 5905 5906 5907 5905 5905 5903 5903 5904 5903 5904
5853 5847 5848 5851 5852 5852 5855 5856 5854 5854 5859 5854 5853 5852 5857 5857 5856 5859 5863 5867 5870 5872 5874 5875 5877 5880 5882 5885 5887 5888 5889 5892 5896 5898 5900 5899 5897 5896 5896 5896 5896 5896 5896
5843 5843 5844 5844 5845 5844 5843 5843 5842 5843 5845 5843 5837 5831 5837 5845 5846 5848 5849 5854 5859 5862 5865 5868 5870 5872 5875 5877 5879 5882 5884 5885 5887 5888 5888 5889 5887 5885 5885 5884 5883 5884 5886
5837 5837 5837 5837 5836 5836 5836 5836 5834 5832 5833 5826 5819 5812 5810 5819 5829 5836 5836 5841 5845 5849 5851 5857 5864 5866 5868 5869 5869 5871 5874 5878 5877 5876 5876 5875 5873 5873 5873 5873 5874 5874 5877
5836 5831 5828 5826 5826 5825 5825 5825 5822 5818 5815 5810 5808 5798 5796 5800 5803 5823 5828 5829 5831 5837 5841 5847 5852 5855 5856 5856 5857 5858 5858 5863 5861 5864 5866 5864 5855 5858 5859 5856 5858 5861 5862
5825 5822 5819 5818 5817 5816 5813 5809 5807 5806 5805 5803 5800 5798 5800 5804 5812 5817 5819 5819 5825 5827 5833 5830 5837 5844 5844 5844 5844 5845 5847 5843 5843 5845 5853 5855 5851 5848 5844 5843 5845 5848 5846
5814 5813 5811 5810 5808 5807 5806 5803 5800 5798 5798 5798 5797 5797 5798 5798 5798 5803 5807 5810 5814 5817 5820 5824 5828 5831 5831 5833 5834 5834 5829 5826 5825 5830 5837 5843 5842 5841 5838 5837 5834 5836 5840
5805 5803 5801 5798 5797 5795 5793 5792 5789 5787 5786 5788 5790 5790 5790 5791 5793 5793 5796 5799 5802 5807 5809 5811 5815 5819 5819 5819 5821 5819 5816 5814 5815 5819 5827 5831 5832 5833 5831 5829 5830 5830 5830
5794 5791 5790 5787 5785 5783 5781 5778 5777 5775 5773 5773 5773 5777 5779 5781 5781 5783 5784 5785 5786 5789 5795 5799 5802 5804 5807 5808 5807 5805 5804 5803 5804 5808 5815 5815 5818 5820 5818 5818 5818 5821 5821
5783 5778 5774 5773 5770 5766 5763 5759 5758 5757 5758 5759 5759 5760 5762 5765 5767 5765 5765 5767 5771 5773 5774 5780 5785 5787 5790 5791 5793 5795 5793 5795 5798 5800 5801 5801 5802 5805 5805 5805 5806 5809 5812
5773 5768 5763 5757 5749 5746 5743 5743 5742 5741 5740 5741 5743 5743 5744 5745 5747 5749 5751 5751 5753 5754 5754 5759 5763 5766 5770 5773 5776 5779 5781 5782 5783 5784 5786 5786 5789 5790 5790 5793 5794 5797 5800
5759 5755 5751 5746 5741 5734 5727 5724 5722 5722 5723 5722 5721 5721 5722 5725 5726 5729 5731 5734 5736 5737 5739 5742 5745 5748 5752 5755 5759 5763 5765 5766 5769 5773 5773 5773 5775 5777 5780 5780 5781 5784 5787
5747 5743 5739 5734 5730 5725 5719 5714 5709 5706 5702 5701 5699 5699 5701 5704 5706 5706 5709 5712 5716 5718 5722 5727 5732 5736 5738 5738 5740 5746 5750 5751 5753 5755 5758 5760 5763 5764 5767 5769 5770 5773 5775
5738 5733 5727 5722 5716 5712 5707 5702 5697 5691 5685 5681 5675 5672 5671 5672 5677 5680 5686 5692 5696 5701 5703 5705 5713 5718 5720 5723 5727 5731 5735 5737 5739 5742 5744 5747 5749 5750 5753 5755 5758 5760 5761
5727 5722 5716 5710 5704 5696 5690 5685 5680 5675 5670 5666 5657 5650 5645 5644 5651 5654 5664 5671 5675 5681 5682 5691 5697 5703 5706 5708 5712 5716 5719 5722 5723 5726 5729 5731 5733 5736 5737 5740 5743 5745 5746
5718 5711 5705 5697 5690 5683 5676 5670 5665 5659 5653 5646 5638 5632 5629 5627 5630 5639 5647 5654 5658 5662 5669 5672 5679 5686 5691 5694 5696 5699 5702 5704 5705 5708 5711 5714 5717 5720 5723 5725 5728 5729 5730
5708 5701 5694 5686 5678 5671 5665 5660 5654 5648 5641 5635 5629 5625 5623 5622 5625 5629 5634 5639 5644 5648 5653 5657 5663 5668 5672 5675 5678 5681 5683 5686 5688 5691 5693 5696 5699 5701 5704 5707 5710 5712 5714
5698 5692 5685 5679 5672 5663 5656 5651 5645 5639 5633 5627 5622 5620 5619 5619 5620 5621 5629 5634 5635 5637 5640 5644 5648 5651 5652 5657 5660 5663 5666 5669 5670 5672 5675 5677 5680 5683 5687 5690 5692 5695 5699
5691 5684 5677 5671 5664 5657 5650 5644 5638 5632 5627 5621 5618 5614 5613 5612 5614 5618 5620 5622 5623 5625 5626 5628 5630 5632 5634 5638 5641 5644 5648 5650 5653 5656 5658 5662 5665 5666 5670 5673 5675 5679 5682
5683 5677 5671 5665 5658 5652 5646 5640 5634 5629 5624 5620 5615 5611 5608 5607 5607 5608 5609 5609 5610 5610 5610 5611 5613 5615 5618 5620 5624 5626 5629 5632 5635 5638 5640 5643 5648 5650 5652 5656 5659 5662 5666
5677 5671 5665 5660 5654 5649 5643 5638 5631 5626 5621 5616 5612 5608 5604 5600 5599 5599 5599 5599 5598 5598 5599 5600 5601 5602 5604 5604 5605 5608 5612 5615 5619 5621 5623 5626 5629 5632 5635 5638 5642 5645 5649